Regional Weather Roundup
Issued by NWS

Home | Current Version | Previous Version | Graphics & Text | Print | Product List | Glossary On
Versions: 1 2 3 4 5 6 7 8 9 10 11 12 13 14 15 16 17 18 19 20 21 22 23 24 25 26 27 28 29 30 31 32 33 34 35 36 37 38 39 40 41 42 43 44 45 46 47 48 49 50
000
ASUS43 KMPX 020401
RWRMN
WEATHER ROUNDUP FOR MINNESOTA
NATIONAL WEATHER SERVICE TWIN CITIES/CHANHASSEN MN
1100 PM CDT SAT AUG 01 2015


NOTE: "FAIR" INDICATES FEW OR NO CLOUDS BELOW 12,000 FEET WITH NO
SIGNIFICANT WEATHER AND/OR OBSTRUCTIONS TO VISIBILITY. N/A MEANS
CURRENT SKY AND/OR WEATHER CONDITIONS ARE NOT AVAILABLE.

MNZ060>063-068>070-020500-
   Twin Cities Metro

CITY           SKY/WX    TMP DP  RH WIND       PRES   REMARKS
TWIN CITIES    MOCLDY    79  67  66 SW12      29.77F
ST PAUL        PTCLDY    76  68  76 S6        29.77S
CRYSTAL        CLEAR     79  66  64 SW8       29.75F
BLAINE         CLEAR     81  66  61 SW7       29.77S
LAKEVILLE      CLEAR     72  66  83 CALM      29.79S
EDEN PRAIRIE   CLEAR     75  66  73 SW10      29.77S
SOUTH ST PAUL  CLEAR     76  66  70 SW8       29.77S
LAKE ELMO      FAIR      72  68  88 S5        29.78F
$$
MNZ001>005-007-008-013>017-022>024-027-028-020500-
   Northwest Minnesota

CITY           SKY/WX    TMP DP  RH WIND       PRES   REMARKS
BEMIDJI        PTCLDY    63  58  86 CALM      29.73F
HALLOCK        CLOUDY    68  63  83 S6        29.62F
ROSEAU         PTCLDY    64  59  82 S7        29.65F
WARROAD        PTCLDY    68  63  83 SW5       29.65F
THIEF RVR FALL PTCLDY    66  63  88 S5        29.69F
CROOKSTON      PTCLDY    66  63  88 S6        29.68F
FOSSTON        PTCLDY    61  57  88 S6        29.72F
DETROIT LAKES  CLEAR     72  63  73 CALM      29.76S
MOORHEAD       CLEAR     72  66  83 SE5       29.72F
PARK RAPIDS    CLEAR     70  60  70 CALM      29.75S
MAHNOMEN       FAIR      68  63  84 S3        29.73S
$$
MNZ006-009>011-018-025>026-020500-
   North Central Minnesota

CITY           SKY/WX    TMP DP  RH WIND       PRES   REMARKS
BAUDETTE       MOCLDY    65  58  78 S7        29.66F
FLAG ISLAND    MOCLDY    72  61  68 N5        29.64F
INTL FALLS     PTCLDY    59  55  87 SW3       29.68F
WASKISH        MOCLDY    70  61  73 S5        29.69F
BIG FORK       MOCLDY    61  57  88 CALM      29.73F
LONGVILLE      CLEAR     61  59  94 CALM      29.74F
GRAND RAPIDS   CLEAR     70  55  60 SW7       29.74F
CRANE LAKE     PTCLDY    55  55 100 S3        29.71F
ORR            PTCLDY    64  55  72 CALM      29.69F
COOK           MOCLDY    64  55  72 CALM      29.72F
WALKER         FAIR      65  59  81 W3        29.74S
$$
MNZ012-019>021-037-020500-
   Northeast Minnesota

CITY           SKY/WX    TMP DP  RH WIND       PRES   REMARKS
DULUTH         PTCLDY    67  58  72 W7        29.74F
ELY            CLEAR     61  54  77 CALM      29.72F
HIBBING        PTCLDY    64  56  75 SW3       29.73F
EVELETH        PTCLDY    66  55  68 SW5       29.74F
DULUTH HARBOR  CLEAR     70  63  78 SW8       29.72F
TWO HARBORS    CLEAR     64  59  82 W5        29.71F
SILVER BAY     CLEAR     61  55  82 CALM      29.71F
GRAND MARAIS     N/A     46  42  86 CALM      29.68F
G MARAIS ARPRT   N/A     59  48  67 SW3       29.74F
$$
MNZ029>031-032-039>041-046>048-054>057-064-020500-
   West Central Minnesota

CITY           SKY/WX    TMP DP  RH WIND       PRES   REMARKS
FERGUS FALLS   CLEAR     75  68  78 CALM      29.72S
WHEATON        CLEAR     72  64  78 S8        29.74S
MORRIS         CLEAR     70  66  88 S5        29.73F
ALEXANDRIA     CLEAR     73  67  81 SW7       29.76F
ELBOW LAKE     FAIR      71  67  88 S7        29.73F
WADENA         CLEAR     68  63  83 CALM      29.75S
GLENWOOD       CLEAR     70  66  88 S8        29.76F
APPLETON       PTCLDY    75  64  69 S3        29.74S
BENSON         CLEAR     70  64  83 SW3       29.75S
ORTONVILLE     CLEAR     75  63  64 CALM      29.73F
MADISON        CLEAR     72  63  73 S6        29.74F
WILLMAR        FAIR      72  66  83 S3        29.78F
$$
MNZ033>034-036-042>043-049>051-058-059-020500-
   Central Minnesota

CITY           SKY/WX    TMP DP  RH WIND       PRES   REMARKS
ST CLOUD       CLEAR     71  67  87 SW7       29.75F
SAUK CENTRE    FAIR      70  66  87 S7        29.76S
PAYNESVILLE    CLEAR     71  66  84 SE9       29.77S
AITKIN         CLEAR     66  61  82 S3        29.74F
PINE RIVER     CLEAR     64  61  88 CALM      29.79S
BRAINERD       CLEAR     67  62  84 S3        29.75F
STAPLES        CLEAR     72  63  73 CALM      29.75S
LONG PRAIRIE   FAIR      68  64  88 S6        29.76F
LITTLE FALLS   PTCLDY    72  64  78 SE3       29.75F
LITCHFIELD     CLEAR     73  70  88 CALM      29.78F
BUFFALO        CLEAR     75  65  71 S5        29.78S
MAPLE LAKE     CLEAR     75  68  78 S3        29.77F
$$
MNZ037-044-045-052-053-020500-
   East Central Minnesota

CITY           SKY/WX    TMP DP  RH WIND       PRES   REMARKS
PRINCETON      CLEAR     72  66  83 CALM      29.76F
MORA           CLEAR     64  61  88 CALM      29.77F
CAMBRIDGE      CLEAR     73  61  64 CALM      29.75S
RUSH CITY      CLEAR     66  62  85 CALM      29.76F
MOOSE LAKE     PTCLDY    63  61  94 W3        29.74S
HINCKLEY       MOCLDY    70  63  78 CALM      29.76F
CLOQUET        CLEAR     68  57  68 SW6       29.75F
MCGREGOR       CLEAR     68  61  77 SW3       29.75F
$$
MNZ071>073-080-081-089-090-097-098-020500-
   Southwest Minnesota

CITY           SKY/WX    TMP DP  RH WIND       PRES   REMARKS
MONTEVIDEO     PTCLDY    73  63  68 SW5       29.77F
GRANITE FALLS  CLEAR     69  65  86 SE6       29.78F
CANBY          PTCLDY    76  62  60 SW12G21   29.77S
MARSHALL       PTCLDY    75  61  60 SW15G21   29.79F
REDWOOD FALLS  CLEAR     73  64  73 S9        29.79R
OLIVIA         CLEAR     70  63  78 S7        29.78S
PIPESTONE      PTCLDY    72  64  78 SW12      29.84F
WINDOM         CLEAR     73  64  73 S10       29.85S
WORTHINGTON    CLEAR     72  64  78 S15       29.86F
JACKSON        CLEAR     72  64  78 S8        29.86F
TRACY          PTCLDY    75  64  69 SW18      29.81S
SLAYTON        PTCLDY    73  66  78 SW14G21   29.85S
$$
MNZ065>067-074>077-082>085-091>093-020500-
   South Central Minnesota

CITY           SKY/WX    TMP DP  RH WIND       PRES   REMARKS
MANKATO        PTCLDY    73  64  73 SW10      29.82R
NEW ULM        CLEAR     73  63  68 SW12      29.81S
ST JAMES       CLEAR     73  66  78 S7        29.83S
FAIRMONT       CLEAR     73  63  68 SW9       29.85F
GLENCOE        CLEAR     73  68  86 S5        29.79S
FARIBAULT      CLEAR     72  66  83 S5        29.81F
OWATONNA       CLEAR     72  66  83 S10       29.83S
WASECA         CLEAR     72  68  88 SW9       29.84S
ALBERT LEA     CLEAR     73  66  78 S8        29.85F
$$
MNZ078>079-086>088-094>096-020500-
   Southeast Minnesota

CITY           SKY/WX    TMP DP  RH WIND       PRES   REMARKS
ROCHESTER      CLEAR     70  66  87 S12       29.85F
RED WING       CLEAR     79  64  61 SW7       29.77F
STANTON        CLEAR     72  65  79 S3        29.78F
DODGE CENTER   CLEAR     72  64  78 S13       29.83F
WINONA         CLEAR     77  66  69 SW6       29.81F
AUSTIN         CLEAR     70  64  83 S6        29.86S
PRESTON        CLEAR     72  67  84 SW8       29.87F
$$
ABBREVIATIONS USED IN REMARKS
   TC - TEMPERATURES IN CELSIUS
  WCI - WIND CHILL INDEX
   HX - HEAT INDEX
  VSB - VISIBILITY
$$


USA.gov is the U.S. government's official web portal to all federal, state and local government web resources and services.